This is the latest recevied weather packets stored in our database for station/object VK5TRM-14. If no packets are shown the sender has not sent any weather packets the latest 10 day(s).
| Time | Temp. | Humidity | Pressure | Rain* | Wind** | Luminosity | Snow |
|---|---|---|---|---|---|---|---|
| 1777998605 | 11.67° C | 94% | 1023.4 hPa | 0 mm | - | - | - |
| 1777997705 | 11.67° C | 94% | 1023.4 hPa | 0 mm | - | - | - |
| 1777996805 | 12.22° C | 94% | 1023.5 hPa | 0 mm | - | - | - |
| 1777995905 | 12.22° C | 94% | 1023.5 hPa | 0 mm | - | - | - |
| 1777995005 | 12.22° C | 93% | 1023.6 hPa | 0 mm | - | - | - |
| 1777994105 | 12.22° C | 93% | 1023.6 hPa | 0 mm | - | - | - |
| 1777993205 | 12.22° C | 94% | 1023.8 hPa | 0 mm | - | - | - |
| 1777992305 | 12.22° C | 94% | 1023.8 hPa | 0 mm | - | - | - |
| 1777991405 | 12.22° C | 94% | 1023.8 hPa | 0 mm | - | - | - |
| 1777990505 | 12.22° C | 94% | 1023.8 hPa | 0 mm | - | - | - |
| 1777989605 | 11.67° C | 94% | 1024 hPa | 0 mm | - | - | - |
| 1777988705 | 11.67° C | 94% | 1024 hPa | 0 mm | - | - | - |
| 1777987805 | 11.67° C | 92% | 1024.2 hPa | 0 mm | - | - | - |
| 1777986905 | 11.67° C | 92% | 1024.2 hPa | 0 mm | - | - | - |
| 1777986005 | 12.22° C | 91% | 1024.2 hPa | 0 mm | - | - | - |
| 1777985105 | 12.22° C | 91% | 1024.2 hPa | 0 mm | - | - | - |
| 1777984205 | 12.78° C | 88% | 1024.3 hPa | 0 mm | - | - | - |
| 1777983305 | 12.78° C | 88% | 1024.3 hPa | 0 mm | - | - | - |
| 1777982406 | 13.33° C | 86% | 1024.3 hPa | 0 mm | - | - | - |
| 1777981505 | 13.33° C | 86% | 1024.3 hPa | 0 mm | - | - | - |
| 1777980606 | 13.89° C | 88% | 1024.4 hPa | 0 mm | - | - | - |
| 1777979705 | 13.89° C | 88% | 1024.4 hPa | 0 mm | - | - | - |
| 1777978805 | 13.89° C | 86% | 1024.4 hPa | 0 mm | - | - | - |
| 1777977906 | 13.89° C | 86% | 1024.4 hPa | 0 mm | - | - | - |
| 1777977005 | 14.44° C | 86% | 1024.4 hPa | 0 mm | - | - | - |
* Rain since midnight (hover to see other rain measurements)
** Current wind speed in m/s (hover to see current wind gust speed)